This demonstration page uses our WeatherBlox Daily Observations layout. Learn more.

Left ArrowRight Arrow

Hourly Observations for July 8, 2022

Temp ( °F °C ) Dew Point ( °F °C ) Humidity (%) Winds ( mph kmh ) Pressure ( in mb ) Visibility ( mi km ) Precip ( " mm )
12:19 am 00:19 Cloudy 74 23.3 72 22.2 94 94 N 7 11 29.89 1012 10 16 0.00 0.00
12:37 am 00:37 Cloudy 74 23.3 72 22.2 94 94 Calm 29.90 1013 10 16 0.00 0.00
12:52 am 00:52 Cloudy 75 23.9 71 21.7 88 88 Calm 29.92 1013 10 16 0.00 0.00
1:40 am 01:40 Cloudy 75 23.9 71 21.7 88 88 Calm 29.90 1012 10 16 0.00 0.00
1:52 am 01:52 Cloudy 75 23.9 71 21.7 88 88 Calm 29.91 1013 10 16 0.00 0.00
2:52 am 02:52 Cloudy 73 22.8 72 22.2 96 96 NNW 10 17 29.91 1013 10 16 0.00 0.00
3:09 am 03:09 Cloudy 73 22.8 71 21.7 94 94 NNW 8 13 29.89 1012 10 16 0.00 0.00
3:16 am 03:16 Cloudy 72 22.2 71 21.7 97 97 NNW 8 13 29.91 1013 10 16 0.00 0.00
3:52 am 03:52 Cloudy 72 22.2 71 21.7 97 97 N 9 15 29.92 1013 10 16 0.00 0.00
4:52 am 04:52 Cloudy 72 22.2 71 21.7 97 97 N 10 17 29.93 1013 10 16 0.00 0.00
5:52 am 05:52 Cloudy with Mist and Fog 72 22.2 71 21.7 97 97 NNW 10 17 29.95 1014 6 10 0.00 0.00
6:17 am 06:17 Cloudy with Mist and Fog 72 22.2 71 21.7 97 97 NNW 7 11 29.95 1014 4 6 0.00 0.00
6:43 am 06:43 Cloudy with Mist and Fog 72 22.2 71 21.7 97 97 NNW 7 11 29.95 1014 3 5 0.00 0.00
6:52 am 06:52 Cloudy with Mist and Fog 72 22.2 72 22.2 100 100 NNW 7 11 29.97 1015 3 5 0.00 0.00
7:52 am 07:52 Cloudy with Mist and Fog 73 22.8 71 21.7 94 94 NNW 8 13 29.98 1015 4 6 0.00 0.00
8:36 am 08:36 Cloudy with Mist and Fog 72 22.2 71 21.7 97 97 NNW 9 15 29.98 1015 2 3 0.00 0.00
8:52 am 08:52 Cloudy with Mist and Fog 72 22.2 71 21.7 97 97 NNW 10 17 30.00 1016 3 5 0.00 0.00
9:28 am 09:28 Cloudy with Mist and Fog 73 22.8 71 21.7 94 94 NNW 13 20 29.99 1016 4 6 0.00 0.00
9:52 am 09:52 Cloudy with Mist and Fog 73 22.8 71 21.7 94 94 NNW 13 20 30.01 1016 4 6 0.00 0.00
10:52 am 10:52 Cloudy with Mist and Fog 74 23.3 71 21.7 91 91 NNW 15 24 30.02 1017 4 6 0.00 0.00
11:20 am 11:20 Cloudy with Mist and Fog 74 23.3 71 21.7 91 91 NNW 14 22 30.01 1016 6 10 0.00 0.00
11:52 am 11:52 Cloudy 76 24.4 71 21.7 85 85 NNW 14 22 30.03 1017 8 13 0.00 0.00
12:52 pm 12:52 Cloudy 77 25 71 21.7 82 82 NW 12 19 30.05 1018 10 16 0.00 0.00
1:42 pm 13:42 Mostly Cloudy 80 26.7 72 22.2 76 76 NNW 10 17 30.01 1016 10 16 0.00 0.00
1:52 pm 13:52 Partly Cloudy 80 26.7 72 22.2 76 76 NW 13 20 30.03 1017 10 16 0.00 0.00
2:52 pm 14:52 Partly Cloudy 83 28.3 72 22.2 70 70 N 10 17 30.02 1017 10 16 0.00 0.00
3:52 pm 15:52 Partly Cloudy 85 29.4 72 22.2 65 65 NW 12 19 30.02 1017 10 16 0.00 0.00
4:52 pm 16:52 Mostly Cloudy 85 29.4 71 21.7 63 63 NNW 12 19 30.02 1017 10 16 0.00 0.00
5:14 pm 17:14 Mostly Cloudy with Light Rain 77 25 72 22.2 85 85 NE 10 17 30.02 1017 5 8 0.01 0.25
5:52 pm 17:52 Mostly Cloudy 77 25 73 22.8 88 88 N 10 17 30.04 1017 10 16 0.04 1.02
6:52 pm 18:52 Mostly Cloudy 79 26.1 74 23.3 85 85 N 9 15 30.03 1017 10 16 0.00 0.00
7:52 pm 19:52 Mostly Sunny 80 26.7 74 23.3 82 82 N 6 9 30.03 1017 10 16 0.00 0.00
8:52 pm 20:52 Mostly Sunny 77 25 72 22.2 85 85 N 8 13 30.05 1018 10 16 0.00 0.00
9:52 pm 21:52 Mostly Clear 75 23.9 71 21.7 88 88 NNE 6 9 30.09 1019 10 16 0.00 0.00
10:52 pm 22:52 Clear 73 22.8 70 21.1 90 90 NW 5 7 30.11 1020 10 16 0.00 0.00
11:52 pm 23:52 Clear 71 21.7 70 21.1 96 96 N 6 9 30.12 1020 10 16 0.00 0.00

Powered by AerisWeather